ARIANE 1 DEB

Satellite information

Favourite Embed

Satellite Type and Status

DEBRISIN ORBIT

Key statistics

Satellite ARIANE 1 DEB at a glance.

Uptime

14541

Days in orbit

Revolutions

≈ 14.7

Per day

Orbit

SSO

Sun Synchronous Orbit

Inclination

98.0

Latest

Satellite identification and parameters

Extended collection of information and parameters for ARIANE 1 DEB.

Object identification

Identified? True

Debris? True

Object name: ARIANE 1 DEB

International designator: 1986-019AG

Object number (NORAD): 17153

Object ID (CCSDS): 17153

Country: FRANCE (FR)

Current information (Y/N): Y

RCS size: MEDIUM

Orbital parameters

Period: 98.213 minutes

Inclination: 97.9998 deg

SMA: 7051.362 km

Apoapsis: 683.455 km

Periapsis: 663.0 km

RAAN: 350.7984 deg

Eccentricy: 0.00145042

Argument of periapsis: 135.1017 deg

Mean anomaly: 225.1363 deg

Mean motion: 14.66200028 rev/day

Mean motion (dot): 0.00004629 rev/day2

B* drag term: 0.00084801817 1/REarth

Two-line elements (TLE)

Creation date: Dec. 14, 2025, 3:07 a.m.

Reference frame: TEME

Reference center: EARTH

Epoch: Dec. 13, 2025, 1:07 p.m. UTC

TLE line 0: 0 ARIANE 1 DEB

TLE line 1: 1 17153U 86019AG 25347.54659866 .00004629 00000-0 84802-3 0 9997

TLE line 2: 2 17153 97.9998 350.7984 0014504 135.1017 225.1363 14.66200028 8074

Live tracking on map

Real-time ground track for satellite ARIANE 1 DEB.

In-orbit conjunctions

A list of the most updated potential collisions computed for object ARIANE 1 DEB.

Target Orbit TCA Probability of collision Miss distance Type
DELTA 1 DEB SSO 2024-11-12 17:18:38 0.005651423 255.0 (m) DEBRIS
CZ-6A DEB SSO 2024-11-12 01:14:35 0.0001528069 959.0 (m) DEBRIS

Associated space launch

SPOT 1 is a French Earth observation satellite. Viking is Sweden's first satellite.

ARIANE 1 DEB was lifted into orbit during the mission ‘Ariane 1 | SPOT 1 & Viking’, on board a Ariane 1 space rocket.

The launch took place on Feb. 22, 1986, 1:44 a.m. from Ariane Launch Area 1 (ELV).

For more information about the launch, click the button.

Launch to space Ariane 1 | SPOT 1 & Viking
Ariane 1 | SPOT 1 & Viking

Agency: N/A

Status: Launch Successful

Launch date: Feb. 22, 1986, 1:44 a.m. UTC

Rocket: Ariane 1

Launch pad: Ariane Launch Area 1 (ELV)

Location: Guiana Space Centre, French Guiana

...

Latest news about this satellite

There are no fresh news available about this satellite. Check back as we update our databases every day.


Newsletter sign-up

Weekly statistics, charts and insights to help you stay on top of the space industry.